This is the latest recevied weather packets stored in our database for station/object KR4ELZ. If no packets are shown the sender has not sent any weather packets the latest 10 day(s).
| Time | Temp. | Humidity | Pressure | Rain* | Wind** | Luminosity | Snow |
|---|---|---|---|---|---|---|---|
| 1777413309 | 21.67° C | 92% | 1012.5 hPa | 0 mm | - | 1 W/m² | - |
| 1777413004 | 21.67° C | 92% | 1012.4 hPa | 0 mm | - | 1 W/m² | - |
| 1777412703 | 21.67° C | 93% | 1012.6 hPa | 0 mm | - | 1 W/m² | - |
| 1777412403 | 21.67° C | 93% | 1012.2 hPa | 0 mm | - | 1 W/m² | - |
| 1777412102 | 21.67° C | 93% | 1012.1 hPa | 0 mm | - | 2 W/m² | - |
| 1777411797 | 21.67° C | 94% | 1012.5 hPa | 0 mm | - | 4 W/m² | - |
| 1777411496 | 21.67° C | 94% | 1012.2 hPa | 0 mm | - | 5 W/m² | - |
| 1777411196 | 21.67° C | 93% | 1011.8 hPa | 0 mm | - | 4 W/m² | - |
| 1777410891 | 21.67° C | 93% | 1012.1 hPa | 0 mm | - | 6 W/m² | - |
| 1777410591 | 21.67° C | 93% | 1012 hPa | 0 mm | - | 6 W/m² | - |
| 1777410291 | 21.67° C | 93% | 1012.3 hPa | 0 mm | - | 16 W/m² | - |
| 1777409986 | 21.67° C | 92% | 1012.7 hPa | 0 mm | - | 16 W/m² | - |
| 1777409681 | 22.22° C | 92% | 1013 hPa | 0 mm | - | 16 W/m² | - |
| 1777409377 | 22.22° C | 91% | 1013.5 hPa | 0 mm | - | 15 W/m² | - |
| 1777409073 | 22.22° C | 91% | 1013.7 hPa | 0 mm | - | 19 W/m² | - |
| 1777408769 | 22.78° C | 91% | 1013.7 hPa | 0 mm | - | 17 W/m² | - |
| 1777408466 | 22.78° C | 90% | 1013.5 hPa | 0 mm | - | 23 W/m² | - |
| 1777408161 | 22.78° C | 89% | 1013.4 hPa | 0 mm | - | 32 W/m² | - |
| 1777407856 | 23.33° C | 89% | 1013.5 hPa | 0 mm | - | 48 W/m² | - |
| 1777407554 | 23.33° C | 88% | 1013.5 hPa | 0 mm | - | 41 W/m² | - |
| 1777407253 | 23.33° C | 88% | 1013.8 hPa | 0 mm | - | 61 W/m² | - |
| 1777406947 | 23.33° C | 88% | 1013.7 hPa | 0 mm | - | 78 W/m² | - |
| 1777406648 | 23.33° C | 88% | 1013.5 hPa | 0 mm | - | 68 W/m² | - |
| 1777406344 | 23.89° C | 87% | 1013.5 hPa | 0 mm | - | 37 W/m² | - |
| 1777406043 | 24.44° C | 85% | 1013.6 hPa | 0 mm | - | 41 W/m² | - |
* Rain latest hour (hover to see other rain measurements)
** Current wind speed in m/s (hover to see current wind gust speed)